Location: Homewood
(41.1836°S, 175.9581°E)
Time: 02:30:45
(UTC+00:00)

Cosmos 1908 - Pass Details

Date: 18 April 2024
Orbit: 467 x 485 km, 82.5° (Epoch: 22 May)

Event Time Altitude Azimuth Distance (km) Brightness Sun altitude
Rises 17:42:01 0° 351° (N) 2,507 6.6 -13.6°
Reaches altitude 10° 17:44:05 10° 350° (N) 1,637 5.7 -13.2°
Maximum altitude 17:47:39 80° 263° (W) 490 2.9 -12.5°
Drops below altitude 10° 17:51:18 10° 174° (S) 1,664 5.8 -11.8°
Sets 17:53:25 0° 173° (S) 2,552 6.8 -11.4°
